Regional Weather Roundup
Issued by NWS

Home | Current Version | Previous Version | Graphics & Text | Print | Product List | Glossary On
Versions: 1 2 3 4 5 6 7 8 9 10 11 12 13 14 15 16 17 18 19 20 21 22 23 24 25 26 27 28 29 30 31 32 33 34 35 36 37 38 39 40 41 42 43 44 45 46 47 48 49 50
000
ASUS43 KLSX 271810
RWRMO

WEATHER SUMMARY FOR MISSOURI
NATIONAL WEATHER SERVICE SPRINGFIELD MO
100 PM CDT SAT AUG 27 2016

NOTE: "FAIR" INDICATES FEW OR NO CLOUDS BELOW 12,000 FEET WITH NO
       SIGNIFICANT WEATHER AND/OR OBSTRUCTIONS TO VISIBILITY.
       CURRENT SKY AND/OR WEATHER CONDITIONS ARE NOT AVAILABLE FOR
       CHILLICOTHE AND FARMINGTON.

MOZ001>031-035>038-043-044-053-054-271900-
...NORTHERN AND WESTERN MISSOURI...

CITY           SKY/WX    TMP DP  RH WIND       PRES   REMARKS
KANSAS CTY INT MOSUNNY   84  69  60 MISG      30.03S
6HR MIN TEMP:  67; 6HR MAX TEMP:  84; 6HR PCP: TRACE;

KANSAS C DTWN  SUNNY     86  72  62 S9        30.01F HX  92
6HR MIN TEMP:  71; 6HR MAX TEMP:  86;

LEE`S SUMMIT   PTSUNNY   84  72  67 S6        30.04S
6HR MIN TEMP:  71; 6HR MAX TEMP:  84;

ST JOSEPH      MOSUNNY   81  69  67 CALM      30.03S
6HR MIN TEMP:  68; 6HR MAX TEMP:  81; 6HR PCP:  0.15;

KIRKSVILLE     MOSUNNY   83  72  69 SW9       30.04S
6HR MIN TEMP:  64; 6HR MAX TEMP:  83;


$$
MOZ066>068-077>081-088>096-101>105-271900-
...SOUTHWEST MISSOURI...

CITY           SKY/WX    TMP DP  RH WIND       PRES   REMARKS
SPRINGFIELD    PTSUNNY   84  69  60 S7        30.06F
6HR MIN TEMP:  72; 6HR MAX TEMP:  84;

JOPLIN         MOSUNNY   85  71  63 S10       30.05F HX  90
6HR MIN TEMP:  68; 6HR MAX TEMP:  85;

BRANSON        CLOUDY    84  70  61 SE5       30.09F

$$
MOZ032>034-039>042-045>050-055>058-069>072-271900-
...CENTRAL MISSOURI...

CITY           SKY/WX    TMP DP  RH WIND       PRES   REMARKS
COLUMBIA       MOSUNNY   84  72  67 SW6       30.05F
6HR MIN TEMP:  70; 6HR MAX TEMP:  84;

JEFFERSON CITY MOSUNNY   84  70  62 SW5       30.03F
6HR MIN TEMP:  71; 6HR MAX TEMP:  85;

ROLLA          MOSUNNY   83  72  69 VRB3      30.06F
6HR MIN TEMP:  70; 6HR MAX TEMP:  83;

SEDALIA        MOSUNNY   86  70  58 SW8       30.05S HX  90
6HR MIN TEMP:  70; 6HR MAX TEMP:  87;

WHITEMAN AFB   PTSUNNY   85  73  66 VRB3      30.02F HX  92
OSAGE BEACH    PTSUNNY   84  73  69 SW3       30.05F HX  90

$$
MOZ051-052-059>065-271900-
...EAST CENTRAL MISSOURI...

CITY           SKY/WX    TMP DP  RH WIND       PRES   REMARKS
ST LOUIS INTL  PTSUNNY   89  71  55 CALM      30.05F HX  95
6HR MIN TEMP:  75; 6HR MAX TEMP:  91;

SPIRIT OF STL  MOSUNNY   88  74  63 CALM      30.03F HX  96
6HR MIN TEMP:  71; 6HR MAX TEMP:  88;

ST CHARLES     PTSUNNY   87  74  64 VRB5      30.03F HX  95
6HR MIN TEMP:  72; 6HR MAX TEMP:  87;


$$
MOZ072>076-082>087-097>100-106>115-271900-
...SOUTH CENTRAL AND SOUTHEAST MISSOURI...

CITY           SKY/WX    TMP DP  RH WIND       PRES   REMARKS
CAPE GIRARDEAU SUNNY     86  71  60 VRB5      30.07F HX  91
6HR MIN TEMP:  70; 6HR MAX TEMP:  86;

FARMINGTON     MOSUNNY   87  74  64 VRB3      30.08F HX  95
6HR MIN TEMP:  69; 6HR MAX TEMP:  87;

POPLAR BLUFF   MOSUNNY   86  74  67 VRB3      30.06F HX  94
6HR MIN TEMP:  70; 6HR MAX TEMP:  86;

WEST PLAINS    PTSUNNY   86  71  60 CALM      30.10F HX  91
6HR MIN TEMP:  70; 6HR MAX TEMP:  86;


$$




USA.gov is the U.S. government's official web portal to all federal, state and local government web resources and services.